When you browse on this site, cookies collect data to enhance your experience and personalize the content and advertising you see.
Visit our Privacy Policy to learn more. By continuing to use the site, you agree to this use of cookies and data.

Hourly Weather Sharan

Today, 11 July, Saturday

Time Temperature Precipitation Wind Pressure Humidity
00:00 +26°C° 0 mm 2 mps 586 mmHg 23%
01:00 +25°C° 0 mm 2 mps 585 mmHg 23%
02:00 +24°C° 0 mm 2 mps 585 mmHg 23%
03:00 +23°C° 0 mm 2 mps 584 mmHg 24%
04:00 +21°C° 0 mm 2 mps 584 mmHg 25%
05:00 +20°C° 0 mm 2 mps 584 mmHg 26%
06:00 +21°C° 0 mm 2 mps 584 mmHg 24%
07:00 +22°C° 0 mm 3 mps 585 mmHg 22%
08:00 +24°C° 0 mm 3 mps 586 mmHg 21%
09:00 +26°C° 0 mm 3 mps 586 mmHg 19%
10:00 +27°C° 0 mm 3 mps 586 mmHg 17%
11:00 +28°C° 0 mm 3 mps 586 mmHg 15%
12:00 +29°C° 0 mm 3 mps 586 mmHg 14%
13:00 +30°C° 0 mm 3 mps 586 mmHg 12%
14:00 +31°C° 0 mm 3 mps 586 mmHg 11%
15:00 +31°C° 0 mm 3 mps 586 mmHg 11%
16:00 +33°C° 0 mm 3 mps 586 mmHg 10%
17:00 +33°C° 0 mm 3 mps 585 mmHg 10%
18:00 +31°C° 0 mm 3 mps 585 mmHg 13%
19:00 +30°C° 0 mm 2 mps 585 mmHg 16%
20:00 +29°C° 0 mm 2 mps 585 mmHg 18%
21:00 +28°C° 0 mm 3 mps 584 mmHg 24%
22:00 +27°C° 0 mm 4 mps 584 mmHg 29%
23:00 +26°C° 0 mm 5 mps 584 mmHg 34%

Tomorrow, 12 July, Sunday

Time Temperature Precipitation Wind Pressure Humidity
00:00 +25°C° 0 mm 4 mps 584 mmHg 35%
01:00 +25°C° 0 mm 3 mps 584 mmHg 37%
02:00 +24°C° 0 mm 2 mps 584 mmHg 38%
03:00 +23°C° 0 mm 2 mps 583 mmHg 40%
04:00 +23°C° 0 mm 2 mps 583 mmHg 42%
05:00 +21°C° 0 mm 2 mps 583 mmHg 44%
06:00 +23°C° 0 mm 2 mps 583 mmHg 42%
07:00 +24°C° 0 mm 2 mps 584 mmHg 39%
08:00 +25°C° 0 mm 2 mps 584 mmHg 37%
09:00 +26°C° 0 mm 2 mps 585 mmHg 32%
10:00 +28°C° 0 mm 3 mps 586 mmHg 27%
11:00 +29°C° 0 mm 3 mps 586 mmHg 23%
12:00 +30°C° 0 mm 4 mps 586 mmHg 19%
13:00 +33°C° 0 mm 6 mps 587 mmHg 15%
14:00 +34°C° 0 mm 7 mps 587 mmHg 11%
15:00 +33°C° 0 mm 7 mps 587 mmHg 14%
16:00 +33°C° 0 mm 7 mps 586 mmHg 16%
17:00 +32°C° 0 mm 7 mps 586 mmHg 18%
18:00 +30°C° 0.1 mm 6 mps 586 mmHg 24%
19:00 +28°C° 0.1 mm 6 mps 585 mmHg 29%
20:00 +27°C° 0.1 mm 6 mps 585 mmHg 34%
21:00 +26°C° 0.1 mm 5 mps 585 mmHg 37%
22:00 +25°C° 0.1 mm 4 mps 585 mmHg 41%
23:00 +24°C° 0.1 mm 3 mps 585 mmHg 44%

Day after tomorrow, 13 July, Monday

Time Temperature Precipitation Wind Pressure Humidity
00:00 +24°C° 0.3 mm 3 mps 584 mmHg 46%
01:00 +23°C° 0.3 mm 2 mps 584 mmHg 48%
02:00 +21°C° 0.3 mm 2 mps 584 mmHg 50%
03:00 +21°C° 0.1 mm 2 mps 584 mmHg 52%
04:00 +20°C° 0.1 mm 2 mps 584 mmHg 54%
05:00 +20°C° 0.1 mm 2 mps 584 mmHg 55%
06:00 +21°C° 0.1 mm 2 mps 584 mmHg 53%
07:00 +22°C° 0.1 mm 1 mps 585 mmHg 51%
08:00 +23°C° 0.1 mm 1 mps 585 mmHg 49%
09:00 +25°C° 0 mm 2 mps 586 mmHg 41%
10:00 +27°C° 0 mm 2 mps 587 mmHg 33%
11:00 +29°C° 0 mm 3 mps 587 mmHg 25%
12:00 +30°C° 0 mm 4 mps 587 mmHg 21%
13:00 +32°C° 0 mm 5 mps 588 mmHg 18%
14:00 +33°C° 0 mm 6 mps 588 mmHg 14%
15:00 +33°C° 0 mm 6 mps 587 mmHg 17%
16:00 +32°C° 0 mm 7 mps 587 mmHg 20%
17:00 +32°C° 0 mm 7 mps 587 mmHg 24%
18:00 +29°C° 0 mm 6 mps 586 mmHg 29%
19:00 +27°C° 0 mm 6 mps 586 mmHg 33%
20:00 +26°C° 0 mm 6 mps 586 mmHg 38%
21:00 +25°C° 0 mm 5 mps 586 mmHg 41%
22:00 +23°C° 0 mm 4 mps 586 mmHg 44%
23:00 +24°C° 0 mm 3 mps 587 mmHg 46%

14 July, Tuesday

Time Temperature Precipitation Wind Pressure Humidity
00:00 +23°C° 0 mm 2 mps 586 mmHg 48%
01:00 +23°C° 0 mm 2 mps 586 mmHg 50%
02:00 +22°C° 0 mm 1 mps 586 mmHg 52%
03:00 +22°C° 0 mm 1 mps 586 mmHg 54%
04:00 +21°C° 0 mm 1 mps 586 mmHg 57%
05:00 +19°C° 0 mm 0 mps 586 mmHg 59%
06:00 +19°C° 0 mm 0 mps 586 mmHg 55%
07:00 +20°C° 0 mm 0 mps 587 mmHg 51%
08:00 +21°C° 0 mm 0 mps 587 mmHg 48%
09:00 +25°C° 0 mm 1 mps 588 mmHg 39%
10:00 +27°C° 0 mm 2 mps 588 mmHg 30%
11:00 +29°C° 0 mm 3 mps 589 mmHg 22%
12:00 +30°C° 0 mm 4 mps 589 mmHg 19%
13:00 +32°C° 0 mm 4 mps 589 mmHg 17%
14:00 +33°C° 0 mm 5 mps 589 mmHg 14%
15:00 +34°C° 0 mm 5 mps 589 mmHg 14%
16:00 +34°C° 0 mm 5 mps 589 mmHg 14%
17:00 +34°C° 0 mm 6 mps 589 mmHg 14%
18:00 +33°C° 0 mm 6 mps 588 mmHg 17%
19:00 +30°C° 0 mm 6 mps 588 mmHg 20%
20:00 +29°C° 0 mm 6 mps 588 mmHg 23%
21:00 +28°C° 0 mm 5 mps 588 mmHg 26%
22:00 +28°C° 0 mm 5 mps 588 mmHg 29%
23:00 +27°C° 0 mm 4 mps 588 mmHg 31%

15 July, Wednesday

Time Temperature Precipitation Wind Pressure Humidity
00:00 +26°C° 0 mm 3 mps 587 mmHg 35%
01:00 +25°C° 0 mm 3 mps 587 mmHg 38%
02:00 +24°C° 0 mm 3 mps 587 mmHg 42%
03:00 +24°C° 0 mm 2 mps 586 mmHg 44%
04:00 +23°C° 0 mm 1 mps 586 mmHg 47%
05:00 +22°C° 0 mm 1 mps 586 mmHg 50%
06:00 +23°C° 0 mm 1 mps 586 mmHg 46%
07:00 +23°C° 0 mm 0 mps 587 mmHg 41%
08:00 +24°C° 0 mm 0 mps 588 mmHg 37%
09:00 +27°C° 0 mm 1 mps 588 mmHg 31%
10:00 +29°C° 0 mm 2 mps 589 mmHg 24%
11:00 +30°C° 0 mm 4 mps 589 mmHg 18%
12:00 +32°C° 0 mm 4 mps 589 mmHg 15%
13:00 +33°C° 0 mm 5 mps 589 mmHg 13%
14:00 +34°C° 0 mm 5 mps 590 mmHg 11%
15:00 +35°C° 0 mm 6 mps 589 mmHg 10%
16:00 +35°C° 0 mm 6 mps 589 mmHg 10%
17:00 +35°C° 0 mm 6 mps 589 mmHg 9%
18:00 +33°C° 0 mm 6 mps 588 mmHg 15%
19:00 +32°C° 0 mm 7 mps 588 mmHg 21%
20:00 +29°C° 0 mm 7 mps 587 mmHg 27%
21:00 +28°C° 0 mm 6 mps 587 mmHg 31%
22:00 +28°C° 0 mm 6 mps 588 mmHg 35%
23:00 +27°C° 0 mm 6 mps 588 mmHg 39%

16 July, Thursday

Time Temperature Precipitation Wind Pressure Humidity
00:00 +26°C° 0 mm 5 mps 587 mmHg 42%
01:00 +26°C° 0 mm 4 mps 587 mmHg 44%
02:00 +25°C° 0 mm 3 mps 586 mmHg 46%
03:00 +24°C° 0 mm 3 mps 586 mmHg 47%
04:00 +24°C° 0 mm 3 mps 586 mmHg 48%
05:00 +22°C° 0 mm 3 mps 585 mmHg 49%
06:00 +24°C° 0 mm 3 mps 586 mmHg 47%
07:00 +24°C° 0 mm 3 mps 586 mmHg 45%
08:00 +25°C° 0 mm 3 mps 586 mmHg 43%
09:00 +26°C° 0 mm 2 mps 587 mmHg 37%
10:00 +28°C° 0 mm 2 mps 587 mmHg 32%
11:00 +30°C° 0 mm 1 mps 588 mmHg 26%
12:00 +30°C° 0 mm 3 mps 587 mmHg 25%
13:00 +30°C° 0 mm 5 mps 587 mmHg 24%
14:00 +32°C° 0 mm 7 mps 587 mmHg 23%
15:00 +32°C° 0 mm 7 mps 587 mmHg 23%
16:00 +32°C° 0 mm 7 mps 587 mmHg 23%
17:00 +33°C° 0 mm 8 mps 587 mmHg 23%
18:00 +30°C° 0 mm 7 mps 587 mmHg 28%
19:00 +29°C° 0 mm 6 mps 586 mmHg 32%
20:00 +27°C° 0 mm 6 mps 586 mmHg 37%
21:00 +26°C° 0.2 mm 5 mps 586 mmHg 40%
22:00 +26°C° 0.2 mm 5 mps 586 mmHg 42%
23:00 +25°C° 0.2 mm 4 mps 586 mmHg 45%
Show more